Weather in Bolshoe Soldatskoe

Russia / Kursk Oblast     51°20′00″N   35°31′08″E
temp.,
°C
wind,
m/s
gust,
m/s
humid.,
%
clouds,
%
prec.,
mm/h
press.,
hPa
HPBL,
m
7 august, sun
sun700:00+19e46540 0.0 101787
03:00+18e46570 0.0 101778
06:00+18ese33580 0.0 101734
09:00+24ese35470 0.0 1017253
12:00+29ese34333 0.0 10171262
15:00+30e32295 0.0 10162467
18:00+28ene2242100 0.0 101635
21:00+23nne234361 0.0 101615
8 august, mon
mon800:00+21ne334795 0.0 101726
03:00+19nne3352100 0.0 101724
06:00+18nne335997 0.0 101828
09:00+23ne6957100 0.0 1018374
12:00+26ne4547100 0.0 1019604
15:00+27nne224373 0.0 1018798
18:00+26n34515 0.0 1018359
21:00+21nne346357 0.0 101956
9 august, tue
tue900:00+19nne336836 0.0 101931
03:00+18nne489183 0.0 1019143
06:00+17n359035 0.0 101992
09:00+22n447084 0.0 1019419
12:00+26n435698 0.0 1018767
15:00+27n335199 0.0 10181177
18:00+26n4560100 0.0 1018611
21:00+19n61188100 0.1 1018267
10 august, wed
wed1000:00+17nne41094100 0.9 1018255
03:00+17n4996100 2.6 1018253
06:00+17nne51194100 0.4 1018363
09:00+18nne5988100 1.4 1019511
12:00+22nne786864 0.0 1019938
15:00+22nne7760100 0.0 10191084
18:00+21n6967100 0.0 1019750
21:00+17nne51271100 0.0 1019378
11 august, thu
thu1100:00+17nne61563100 0.0 1019501
03:00+16nne61472100 0.0 1019443
06:00+15nne61479100 0.0 1020431
09:00+18ne71267100 0.1 1020573
12:00+23ne785072 0.1 10201013
15:00+25ne784516 0.1 10201156
18:00+24ne58505 0.0 1020916
21:00+18nne412620 0.0 1021221